Ithaca, NY

12:16 PM EST on February 20, 2017 (GMT -0500)
Tompkins County

Weather History for KITH - July, 2013

Change the Weather History Date:

Wednesday, July 3, 2013

  Actual Average Record
Temperature  
Mean Temperature 76 °F -  
Max Temperature 86 °F 77 °F 94 °F (1966)
Min Temperature 68 °F 56 °F 42 °F (1971)
Cooling Degree Days 11    
Growing Degree Days 26 (Base 50)    
Moisture  
Dew Point 68 °F    
Average Humidity 77    
Maximum Humidity 93    
Minimum Humidity 57    
Precipitation  
Precipitation 0.00 in - - ()
Sea Level Pressure  
Sea Level Pressure 30.17 in    
Wind  
Wind Speed 7 mph (South)    
Max Wind Speed 12 mph    
Max Gust Speed -    
Visibility 10 miles    
Events      
Averages and records for this station are not official NWS values.
T = Trace of Precipitation, MM = Missing Value Source: NWS Daily Summary

Daily Weather History Graph

Daily Weather History Graph

Search for Another Location

Airport or City:

Trip Planner

Search our weather history database for the weather conditions in past years. The results will help you decide how hot, cold, wet, or windy it might be!

Date:

Astronomy

Jul. 03, 2013 Rise Set
Actual Time 5:33 AM EDT 8:46 PM EDT
Civil Twilight 4:58 AM EDT 9:21 PM EDT
Nautical Twilight 4:14 AM EDT 10:05 PM EDT
Astronomical Twilight 3:20 AM EDT 10:59 PM EDT
Moon 2:12 AM EDT (7/3) 4:52 PM EDT (7/3)
Length of Visible Light 16h 22m
Length of Day
15h 12m
Waning Crescent, 18% of the Moon is Illuminated
Jul 3
Waning Crescent
Jul 8
New
Jul 15
First Quarter
Jul 22
Full
Jul 29
Last Quarter

Hourly Weather History & Observations

Time (EDT) Temp. Heat Index Dew Point Humidity Pressure Visibility Wind Dir Wind Speed Gust Speed Precip Events Conditions
12:56 AM 70.9 °F - 68.9 °F 93% 30.12 in 10.0 mi South 6.9 mph - N/A   Scattered Clouds
1:56 AM 70.9 °F - 68.0 °F 91% 30.12 in 10.0 mi SSE 8.1 mph - N/A   Partly Cloudy
2:56 AM 70.9 °F - 68.0 °F 91% 30.12 in 10.0 mi SSE 4.6 mph - N/A   Mostly Cloudy
3:56 AM 70.0 °F - 68.0 °F 93% 30.14 in 10.0 mi South 6.9 mph - N/A   Clear
4:56 AM 70.0 °F - 66.9 °F 90% 30.14 in 10.0 mi South 9.2 mph - N/A   Clear
5:56 AM 68.9 °F - 66.9 °F 93% 30.16 in 10.0 mi SSE 5.8 mph - N/A   Clear
6:19 AM 69.8 °F - 66.2 °F 88% 30.18 in 10.0 mi SSE 4.6 mph - N/A   Scattered Clouds
6:56 AM 70.0 °F - 66.9 °F 90% 30.17 in 10.0 mi SSE 6.9 mph - N/A   Mostly Cloudy
7:56 AM 72.0 °F - 66.9 °F 84% 30.19 in 10.0 mi South 8.1 mph - N/A   Mostly Cloudy
8:56 AM 73.9 °F - 68.0 °F 82% 30.20 in 10.0 mi South 6.9 mph - N/A   Mostly Cloudy
9:44 AM 77.0 °F - 69.8 °F 78% 30.22 in 10.0 mi SSW 10.4 mph - N/A   Mostly Cloudy
9:56 AM 77.9 °F - 68.0 °F 71% 30.20 in 10.0 mi SW 9.2 mph - N/A   Mostly Cloudy
10:56 AM 79.9 °F - 68.9 °F 69% 30.20 in 10.0 mi SSW 3.5 mph - N/A   Mostly Cloudy
11:56 AM 81.9 °F 85.2 °F 68.9 °F 65% 30.19 in 10.0 mi SSW 8.1 mph - N/A   Mostly Cloudy
12:56 PM 82.9 °F 86.3 °F 68.9 °F 62% 30.19 in 10.0 mi SSW 5.8 mph - N/A   Mostly Cloudy
1:56 PM 84.9 °F 88.2 °F 68.0 °F 57% 30.17 in 10.0 mi South 4.6 mph - N/A   Mostly Cloudy
2:56 PM 84.9 °F 88.8 °F 68.9 °F 59% 30.16 in 10.0 mi South 6.9 mph - N/A   Mostly Cloudy
3:56 PM 84.9 °F 88.2 °F 68.0 °F 57% 30.15 in 10.0 mi SSW 11.5 mph - N/A   Mostly Cloudy
4:56 PM 83.8 °F 87.5 °F 68.9 °F 61% 30.14 in 10.0 mi South 11.5 mph - N/A   Scattered Clouds
5:56 PM 82.9 °F 87.5 °F 70.9 °F 67% 30.14 in 10.0 mi South 9.2 mph - N/A   Scattered Clouds
6:56 PM 82.9 °F 87.0 °F 70.0 °F 65% 30.15 in 10.0 mi SSW 6.9 mph - N/A   Scattered Clouds
7:56 PM 81.0 °F 84.4 °F 70.0 °F 69% 30.16 in 10.0 mi South 6.9 mph - N/A   Scattered Clouds
8:56 PM 77.9 °F - 68.9 °F 74% 30.17 in 10.0 mi South 5.8 mph - N/A   Partly Cloudy
9:56 PM 74.8 °F - 68.9 °F 82% 30.18 in 10.0 mi SSE 5.8 mph - N/A   Clear
10:56 PM 75.9 °F - 68.9 °F 79% 30.19 in 10.0 mi South 6.9 mph - N/A   Clear
11:56 PM 74.8 °F - 68.9 °F 82% 30.19 in 10.0 mi South 4.6 mph - N/A   Clear